Regional Weather Roundup
Issued by NWS Mobile, AL

Home | Current Version | Previous Version | Text Only | Print | Product List | Glossary On
Versions: 1 2 3 4 5 6 7 8 9 10 11 12 13 14 15 16 17 18 19 20 21 22 23 24 25 26 27 28 29 30 31 32 33 34 35 36 37 38 39 40 41 42 43 44 45 46 47 48 49 50
000
ASUS44 KMOB 011410
RWRMOB
REGIONAL WEATHER ROUNDUP
NATIONAL WEATHER SERVICE MOBILE AL
800 AM CST SUN FEB 01 2015

NOTE: "FAIR" INDICATES FEW OR NO CLOUDS BELOW 12,000 FEET WITH NO
      SIGNIFICANT WEATHER AND/OR OBSTRUCTIONS TO VISIBILITY.

  * THESE STATIONS ARE PART OF THE UNIVERSITY OF SOUTH ALABAMA
    MESONET AND ARE NOT UNDER NWS OR FAA QUALITY CONTROL.

ALZ061>064-011500-
COASTAL ALABAMA

CITY           SKY/WX    TMP DP  RH WIND       PRES   REMARKS
MOBILE REG APT CLOUDY    51  48  89 E5        30.07F
BROOKLEY FIELD PTSUNNY   53  50  89 NE5       30.08F
USA CAMPUS*    NOT AVBL
DOG RIVER*     NOT AVBL


CITY           SKY/WX    TMP DP  RH WIND       PRES   REMARKS
MOUNT VERNON*  NOT AVBL
SARALAND*      NOT AVBL
BAY MINETTE*   NOT AVBL
LOXLEY*        NOT AVBL
ROBERTSDALE*   NOT AVBL
FAIRHOPE*        N/A     52  50  93 E3        30.08S
ELBERTA*         N/A     48  48 100 N3        30.08R
FOLEY*         NOT AVBL
GRAND BAY*     NOT AVBL
DAUPHIN ISLND* NOT AVBL
BON SCOUR NWR* NOT AVBL
GULF SHORES    MOSUNNY   64  58  79 SE8       30.07S

$$

ALZ051>060-011500-
INTERIOR SOUTHWEST AND SOUTH CENTRAL ALABAMA

CITY           SKY/WX    TMP DP  RH WIND       PRES   REMARKS
GREENVILLE     CLOUDY    49  43  80 SE7       30.11S
EVERGREEN      CLOUDY    46  42  86 SE5       30.12S
CASTLEBERRY*   NOT AVBL
ATMORE*          N/A     48  46  93 E8        30.10F
DIXIE*           N/A     45  43  93 CALM      30.09S
ANDALUSIA/OPP  CLOUDY    54  46  74 S8        30.13R
ANDALUSIA*       N/A     48  45  87 SE8       30.11R
FLORALA APT    CLOUDY    48  44  86 CALM      30.15R
FLORALA*         N/A     50  48  93 CALM      30.10R

$$

FLZ001>006-011500-
WESTERN FLORIDA PANHANDLE

CITY           SKY/WX    TMP DP  RH WIND       PRES   REMARKS
PENSACOLA      MOSUNNY   63  59  87 SE7       30.08S
NAS PENSACOLA  MOSUNNY   65  59  81 S8        30.07F
MILTON         CLOUDY    53  49  86 E7        30.10S
WHTNG S FIELD  CLOUDY    54  49  83 E6        30.10F


CITY           SKY/WX    TMP DP  RH WIND       PRES   REMARKS
WALNUT HILL*   NOT AVBL
JAY*           NOT AVBL
DUKE FIELD     PTSUNNY   54  50  87 SE5       30.11R
CRESTVIEW      CLOUDY    53  50  89 CALM      30.13S
VALPARAISO     CLOUDY    55  52  90 E9        30.09S
DESTIN         CLOUDY    62  59  90 SE14      30.09F

$$

MSZ076-079-011500-
INTERIOR SOUTHEAST MISSISSIPPI

CITY           SKY/WX    TMP DP  RH WIND       PRES   REMARKS
LEAKESVILLE*   NOT AVBL
AGRICOLA*      NOT AVBL

$$

MARINE OBSERVATIONS

STATION/POSITION TIME  TEMP    WIND        PRES    WAVE
                       AIR SEA DIR/SP/G            HT/PER
                 (UTC) (F)     (DEG/KT/KT) (MB)    (FT/S)
PASCAGOULA       1400   62     130/ 10/ 13 1017.3R
PETIT BOIS ISLND 1400   65     130/  8/ 10 1017.9R
GRAND BAY        1300   59     120/  6     1018.0S
KATRINA CUT      1300   61     150/ 11     1018.6S
CEDAR POINT      1300   59     100/  4     1018.3S
E DAUPHIN ISLAND 1400   63     140/ 10/ 11 1017.7R
MIDDLE BAY LIGHT 1300   54      80/  7     1018.0R
USCG MOBILE BAY  1400   51 55   50/  2/  3 1017.3F
STATE DOCKS      1400   50 51              1017.9F
MEAHER PARK      1300   56     110/  5     1018.6S
WEEKS BAY        1300   45                   N/A
FORT MORGAN      1400   64     170/ 12/ 13 1017.7R
12 S ORANGE BCH  1400   66 62  150/ 12/ 16 1017.4S   5/ 6
PENSACOLA BAY    1400   63 56  170/  5/  6 1018.9F
64 S DAUPHIN ISL 1326   71 69  170/ 21/ 25 1017.4F   5/ 6

$$

SELECTED LOCATIONS ACROSS THE REGION

CITY           SKY/WX    TMP DP  RH WIND       PRES   REMARKS
NEW ORLEANS    PTSUNNY   61  58  90 SE7       30.01R
GULFPORT       LGT RAIN  61  57  87 SE8       30.03F
PASCAGOULA AP  PTSUNNY   56  54  93 CALM      30.06F
PASCAGOULA*    NOT AVBL
HATTIESBURG    LGT RAIN  55  53  93 SE3       30.05R
LAUREL         CLOUDY    52  48  87 SE3       30.04R
MERIDIAN       LGT RAIN  49  47  93 VRB5      30.04F
JACKSON        CLOUDY    53  50  89 SE13      30.00F
MONTGOMERY     CLOUDY    46  37  71 CALM      30.15S
TROY           CLOUDY    50  44  80 VRB3      30.14F
KINSTON*       NOT AVBL
GENEVA*        NOT AVBL
ASHFORD*         N/A     48  45  87 SE8       30.11R
DOTHAN         SUNNY     49  43  80 SE12      30.16F
PANAMA CITY    MOSUNNY   56  52  86 E10       30.12F

$$



USA.gov is the U.S. government's official web portal to all federal, state and local government web resources and services.